Year,Month,Day,Hour,Minute,Value (Times are PST for temperature in C)
2019,04,27,00,00,9.60
2019,04,27,00,01,9.60
2019,04,27,00,02,9.60
2019,04,27,00,03,9.60
2019,04,27,00,04,9.60
2019,04,27,00,05,9.60
2019,04,27,00,06,9.60
2019,04,27,00,07,9.60
2019,04,27,00,08,9.60
2019,04,27,00,09,9.60
2019,04,27,00,10,9.60
2019,04,27,00,11,9.60
2019,04,27,00,12,9.60
2019,04,27,00,13,9.60
2019,04,27,00,14,9.60
2019,04,27,00,15,9.60
2019,04,27,00,16,9.60
2019,04,27,00,17,9.60
2019,04,27,00,18,9.60
2019,04,27,00,19,9.70
2019,04,27,00,20,9.60
2019,04,27,00,21,9.60
2019,04,27,00,22,9.70
2019,04,27,00,23,9.70
2019,04,27,00,24,9.70
2019,04,27,00,25,9.70
2019,04,27,00,26,9.70
2019,04,27,00,27,9.70
2019,04,27,00,28,9.60
2019,04,27,00,29,9.60
2019,04,27,00,30,9.60
2019,04,27,00,31,9.60
2019,04,27,00,32,9.50
2019,04,27,00,33,9.50
2019,04,27,00,34,9.50
2019,04,27,00,35,9.50
2019,04,27,00,36,9.50
2019,04,27,00,37,9.40
2019,04,27,00,38,9.40
2019,04,27,00,39,9.40
2019,04,27,00,40,9.40
2019,04,27,00,41,9.40
2019,04,27,00,42,9.40
2019,04,27,00,43,9.40
2019,04,27,00,44,9.30
2019,04,27,00,45,9.30
2019,04,27,00,46,9.30
2019,04,27,00,47,9.30
2019,04,27,00,48,9.30
2019,04,27,00,49,9.30
2019,04,27,00,50,9.30
2019,04,27,00,51,9.30
2019,04,27,00,52,9.30
2019,04,27,00,53,9.30
2019,04,27,00,54,9.30
2019,04,27,00,55,9.30
2019,04,27,00,56,9.20
2019,04,27,00,57,9.20
2019,04,27,00,58,9.20
2019,04,27,00,59,9.10
2019,04,27,01,00,9.10
2019,04,27,01,01,9.10
2019,04,27,01,02,9.10
2019,04,27,01,03,9.10
2019,04,27,01,04,9.10
2019,04,27,01,05,9.00
2019,04,27,01,06,9.00
2019,04,27,01,07,9.00
2019,04,27,01,08,8.90
2019,04,27,01,09,8.90
2019,04,27,01,10,8.90
2019,04,27,01,11,8.90
2019,04,27,01,12,8.90
2019,04,27,01,13,8.90
2019,04,27,01,14,8.90
2019,04,27,01,15,8.90
2019,04,27,01,16,8.90
2019,04,27,01,17,8.90
2019,04,27,01,18,8.90
2019,04,27,01,19,8.90
2019,04,27,01,20,8.80
2019,04,27,01,21,8.80
2019,04,27,01,22,8.80
2019,04,27,01,23,8.80
2019,04,27,01,24,8.80
2019,04,27,01,25,8.80
2019,04,27,01,26,8.80
2019,04,27,01,27,8.80
2019,04,27,01,28,8.80
2019,04,27,01,29,8.80
2019,04,27,01,30,8.70
2019,04,27,01,31,8.70
2019,04,27,01,32,8.70
2019,04,27,01,33,8.70
2019,04,27,01,34,8.70
2019,04,27,01,35,8.70
2019,04,27,01,36,8.70
2019,04,27,01,37,8.70
2019,04,27,01,38,8.70
2019,04,27,01,39,8.60
2019,04,27,01,40,8.60
2019,04,27,01,41,8.60
2019,04,27,01,42,8.60
2019,04,27,01,43,8.60
2019,04,27,01,44,8.60
2019,04,27,01,45,8.60
2019,04,27,01,46,8.60
2019,04,27,01,47,8.60
2019,04,27,01,48,8.60
2019,04,27,01,49,8.60
2019,04,27,01,50,8.60
2019,04,27,01,51,8.60
2019,04,27,01,52,8.60
2019,04,27,01,53,8.60
2019,04,27,01,54,8.60
2019,04,27,01,55,8.60
2019,04,27,01,56,8.60
2019,04,27,01,57,8.60
2019,04,27,01,58,8.60
2019,04,27,01,59,8.70
2019,04,27,02,00,8.70
2019,04,27,02,01,8.70
2019,04,27,02,02,8.70
2019,04,27,02,03,8.70
2019,04,27,02,04,8.70
2019,04,27,02,05,8.70
2019,04,27,02,06,8.70
2019,04,27,02,07,8.70
2019,04,27,02,08,8.70
2019,04,27,02,09,8.70
2019,04,27,02,10,8.70
2019,04,27,02,11,8.70
2019,04,27,02,12,8.80
2019,04,27,02,13,8.80
2019,04,27,02,14,8.80
2019,04,27,02,15,8.80
2019,04,27,02,16,8.80
2019,04,27,02,17,8.80
2019,04,27,02,18,8.80
2019,04,27,02,19,8.80
2019,04,27,02,20,8.80
2019,04,27,02,21,8.80
2019,04,27,02,22,8.80
2019,04,27,02,23,8.80
2019,04,27,02,24,8.70
2019,04,27,02,25,8.70
2019,04,27,02,26,8.70
2019,04,27,02,27,8.70
2019,04,27,02,28,8.70
2019,04,27,02,29,8.70
2019,04,27,02,30,8.60
2019,04,27,02,31,8.60
2019,04,27,02,32,8.60
2019,04,27,02,33,8.60
2019,04,27,02,34,8.60
2019,04,27,02,35,8.60
2019,04,27,02,36,8.60
2019,04,27,02,37,8.60
2019,04,27,02,38,8.60
2019,04,27,02,39,8.60
2019,04,27,02,40,8.50
2019,04,27,02,41,8.50
2019,04,27,02,42,8.50
2019,04,27,02,43,8.50
2019,04,27,02,44,8.50
2019,04,27,02,45,8.50
2019,04,27,02,46,8.50
2019,04,27,02,47,8.50
2019,04,27,02,48,8.50
2019,04,27,02,49,8.50
2019,04,27,02,50,8.50
2019,04,27,02,51,8.50
2019,04,27,02,52,8.40
2019,04,27,02,53,8.40
2019,04,27,02,54,8.40
2019,04,27,02,55,8.40
2019,04,27,02,56,8.40
2019,04,27,02,57,8.40
2019,04,27,02,58,8.40
2019,04,27,02,59,8.40
2019,04,27,03,00,8.40
2019,04,27,03,01,8.40
2019,04,27,03,02,8.40
2019,04,27,03,03,8.40
2019,04,27,03,04,8.40
2019,04,27,03,05,8.40
2019,04,27,03,06,8.40
2019,04,27,03,07,8.40
2019,04,27,03,08,8.40
2019,04,27,03,09,8.40
2019,04,27,03,10,8.40
2019,04,27,03,11,8.40
2019,04,27,03,12,8.40
2019,04,27,03,13,8.40
2019,04,27,03,14,8.40
2019,04,27,03,15,8.40
2019,04,27,03,16,8.40
2019,04,27,03,17,8.30
2019,04,27,03,18,8.30
2019,04,27,03,19,8.30
2019,04,27,03,20,8.30
2019,04,27,03,21,8.30
2019,04,27,03,22,8.30
2019,04,27,03,23,8.30
2019,04,27,03,24,8.30
2019,04,27,03,25,8.30
2019,04,27,03,26,8.30
2019,04,27,03,27,8.30
2019,04,27,03,28,8.30
2019,04,27,03,29,8.30
2019,04,27,03,30,8.20
2019,04,27,03,31,8.20
2019,04,27,03,32,8.20
2019,04,27,03,33,8.20
2019,04,27,03,34,8.20
2019,04,27,03,35,8.20
2019,04,27,03,36,8.20
2019,04,27,03,37,8.20
2019,04,27,03,38,8.20
2019,04,27,03,39,8.20
2019,04,27,03,40,8.20
2019,04,27,03,41,8.20
2019,04,27,03,42,8.20
2019,04,27,03,43,8.20
2019,04,27,03,44,8.20
2019,04,27,03,45,8.20
2019,04,27,03,46,8.20
2019,04,27,03,47,8.20
2019,04,27,03,48,8.20
2019,04,27,03,49,8.20
2019,04,27,03,50,8.20
2019,04,27,03,51,8.10
2019,04,27,03,52,8.10
2019,04,27,03,53,8.10
2019,04,27,03,54,8.10
2019,04,27,03,55,8.10
2019,04,27,03,56,8.10
2019,04,27,03,57,8.10
2019,04,27,03,58,8.10
2019,04,27,03,59,8.00
2019,04,27,04,00,8.00
2019,04,27,04,01,8.00
2019,04,27,04,02,8.00
2019,04,27,04,03,8.00
2019,04,27,04,04,8.00
2019,04,27,04,05,8.00
2019,04,27,04,06,8.00
2019,04,27,04,07,8.00
2019,04,27,04,08,8.00
2019,04,27,04,09,8.10
2019,04,27,04,10,8.10
2019,04,27,04,11,8.00
2019,04,27,04,12,8.00
2019,04,27,04,13,8.00
2019,04,27,04,14,8.00
2019,04,27,04,15,8.00
2019,04,27,04,16,8.00
2019,04,27,04,17,8.00
2019,04,27,04,18,8.10
2019,04,27,04,19,8.10
2019,04,27,04,20,8.00
2019,04,27,04,21,8.00
2019,04,27,04,22,8.00
2019,04,27,04,23,8.00
2019,04,27,04,24,8.00
2019,04,27,04,25,8.00
2019,04,27,04,26,7.90
2019,04,27,04,27,7.90
2019,04,27,04,28,7.90
2019,04,27,04,29,7.90
2019,04,27,04,30,7.90
2019,04,27,04,31,7.90
2019,04,27,04,32,7.90
2019,04,27,04,33,7.90
2019,04,27,04,34,7.90
2019,04,27,04,35,7.80
2019,04,27,04,36,7.80
2019,04,27,04,37,7.80
2019,04,27,04,38,7.80
2019,04,27,04,39,7.80
2019,04,27,04,40,7.80
2019,04,27,04,41,7.80
2019,04,27,04,42,7.80
2019,04,27,04,43,7.80
2019,04,27,04,44,7.80
2019,04,27,04,45,7.80
2019,04,27,04,46,7.80
2019,04,27,04,47,7.80
2019,04,27,04,48,7.80
2019,04,27,04,49,7.80
2019,04,27,04,50,7.80
2019,04,27,04,51,7.80
2019,04,27,04,52,7.80
2019,04,27,04,53,7.80
2019,04,27,04,54,7.80
2019,04,27,04,55,7.80
2019,04,27,04,56,7.80
2019,04,27,04,57,7.80
2019,04,27,04,58,7.80
2019,04,27,04,59,7.80
2019,04,27,05,00,7.80
2019,04,27,05,01,7.80
2019,04,27,05,02,7.80
2019,04,27,05,03,7.80
2019,04,27,05,04,7.80
2019,04,27,05,05,7.80
2019,04,27,05,06,7.80
2019,04,27,05,07,7.80
2019,04,27,05,08,7.80
2019,04,27,05,09,7.80
2019,04,27,05,10,7.80
2019,04,27,05,11,7.80
2019,04,27,05,12,7.80
2019,04,27,05,13,7.80
2019,04,27,05,14,7.80
2019,04,27,05,15,7.80
2019,04,27,05,16,7.80
2019,04,27,05,17,7.80
2019,04,27,05,18,7.80
2019,04,27,05,19,7.80
2019,04,27,05,20,7.80
2019,04,27,05,21,7.80
2019,04,27,05,22,7.80
2019,04,27,05,23,7.80
2019,04,27,05,24,7.80
2019,04,27,05,25,7.80
2019,04,27,05,26,7.80
2019,04,27,05,27,7.80
2019,04,27,05,28,7.80
2019,04,27,05,29,7.80
2019,04,27,05,30,7.80
2019,04,27,05,31,7.80
2019,04,27,05,32,7.80
2019,04,27,05,33,7.80
2019,04,27,05,34,7.80
2019,04,27,05,35,7.80
2019,04,27,05,36,7.80
2019,04,27,05,37,7.80
2019,04,27,05,38,7.80
2019,04,27,05,39,7.80
2019,04,27,05,40,7.80
2019,04,27,05,41,7.70
2019,04,27,05,42,7.70
2019,04,27,05,43,7.70
2019,04,27,05,44,7.70
2019,04,27,05,45,7.70
2019,04,27,05,46,7.70
2019,04,27,05,47,7.70
2019,04,27,05,48,7.70
2019,04,27,05,49,7.70
2019,04,27,05,50,7.70
2019,04,27,05,51,7.60
2019,04,27,05,52,7.60
2019,04,27,05,53,7.60
2019,04,27,05,54,7.60
2019,04,27,05,55,7.60
2019,04,27,05,56,7.60
2019,04,27,05,57,7.60
2019,04,27,05,58,7.60
2019,04,27,05,59,7.60
2019,04,27,06,00,7.60
2019,04,27,06,01,7.60
2019,04,27,06,02,7.60
2019,04,27,06,03,7.60
2019,04,27,06,04,7.60
2019,04,27,06,05,7.60
2019,04,27,06,06,7.60
2019,04,27,06,07,7.60
2019,04,27,06,08,7.60
2019,04,27,06,09,7.60
2019,04,27,06,10,7.60
2019,04,27,06,11,7.60
2019,04,27,06,12,7.60
2019,04,27,06,13,7.60
2019,04,27,06,14,7.60
2019,04,27,06,15,7.60
2019,04,27,06,16,7.60
2019,04,27,06,17,7.60
2019,04,27,06,18,7.60
2019,04,27,11,06,10.20
2019,04,27,11,07,10.20
2019,04,27,11,08,10.20
2019,04,27,11,09,10.20
2019,04,27,11,10,10.20
2019,04,27,11,11,10.30
2019,04,27,11,12,10.30
2019,04,27,11,13,10.30
2019,04,27,11,14,10.30
2019,04,27,11,15,10.30
2019,04,27,11,16,10.30
2019,04,27,11,17,10.30
2019,04,27,11,18,10.30
2019,04,27,11,19,10.40
2019,04,27,11,20,10.40
2019,04,27,11,21,10.40
2019,04,27,11,22,10.40
2019,04,27,11,23,10.40
2019,04,27,11,24,10.40
2019,04,27,11,25,10.30
2019,04,27,11,26,10.30
2019,04,27,11,27,10.30
2019,04,27,11,28,10.30
2019,04,27,11,29,10.40
2019,04,27,11,30,10.40
2019,04,27,11,31,10.40
2019,04,27,11,32,10.50
2019,04,27,11,33,10.50
2019,04,27,11,34,10.50
2019,04,27,11,35,10.50
2019,04,27,11,36,10.60
2019,04,27,11,37,10.60
2019,04,27,11,38,10.60
2019,04,27,11,39,10.60
2019,04,27,11,40,10.70
2019,04,27,11,41,10.70
2019,04,27,11,42,10.70
2019,04,27,11,43,10.70
2019,04,27,11,44,10.80
2019,04,27,11,45,10.80
2019,04,27,11,46,10.70
2019,04,27,11,47,10.70
2019,04,27,11,48,10.70
2019,04,27,11,49,10.60
2019,04,27,11,50,10.60
2019,04,27,11,51,10.60
2019,04,27,11,52,10.60
2019,04,27,11,53,10.60
2019,04,27,11,54,10.60
2019,04,27,11,55,10.70
2019,04,27,11,56,10.70
2019,04,27,11,57,10.80
2019,04,27,11,58,10.80
2019,04,27,11,59,10.80
2019,04,27,12,00,10.80
2019,04,27,12,01,10.80
2019,04,27,12,02,10.80
2019,04,27,12,03,10.80
2019,04,27,12,04,10.70
2019,04,27,12,05,10.70
2019,04,27,12,06,10.70
2019,04,27,12,07,10.60
2019,04,27,12,08,10.60
2019,04,27,12,09,10.60
2019,04,27,12,10,10.60
2019,04,27,12,11,10.60
2019,04,27,12,12,10.60
2019,04,27,12,13,10.70
2019,04,27,12,14,10.70
2019,04,27,12,15,10.80
2019,04,27,12,16,10.80
2019,04,27,12,17,10.90
2019,04,27,12,18,10.90
2019,04,27,12,19,10.80
2019,04,27,12,20,10.80
2019,04,27,12,21,10.80
2019,04,27,12,22,10.70
2019,04,27,12,23,10.70
2019,04,27,12,24,10.60
2019,04,27,12,25,10.60
2019,04,27,12,26,10.60
2019,04,27,12,27,10.60
2019,04,27,12,28,10.60
2019,04,27,12,29,10.60
2019,04,27,12,30,10.60
2019,04,27,12,31,10.60
2019,04,27,12,32,10.60
2019,04,27,12,33,10.60
2019,04,27,12,34,10.70
2019,04,27,12,35,10.70
2019,04,27,12,36,10.70
2019,04,27,12,37,10.70
2019,04,27,12,38,10.70
2019,04,27,12,39,10.70
2019,04,27,12,40,10.70
2019,04,27,12,41,10.70
2019,04,27,12,42,10.70
2019,04,27,12,43,10.60
2019,04,27,12,44,10.60
2019,04,27,12,45,10.60
2019,04,27,12,46,10.60
2019,04,27,12,47,10.60
2019,04,27,12,48,10.60
2019,04,27,12,49,10.60
2019,04,27,12,50,10.60
2019,04,27,12,51,10.60
2019,04,27,12,52,10.60
2019,04,27,12,53,10.60
2019,04,27,12,54,10.60
2019,04,27,12,55,10.50
2019,04,27,12,56,10.40
2019,04,27,12,57,10.30
2019,04,27,12,58,10.20
2019,04,27,12,59,10.10
2019,04,27,13,00,10.00
2019,04,27,13,01,10.00
2019,04,27,13,02,9.90
2019,04,27,13,03,9.90
2019,04,27,13,04,9.90
2019,04,27,13,05,9.80
2019,04,27,13,06,9.70
2019,04,27,13,07,9.60
2019,04,27,13,08,9.60
2019,04,27,13,09,9.50
2019,04,27,13,10,9.50
2019,04,27,13,11,9.50
2019,04,27,13,12,9.50
2019,04,27,13,13,9.40
2019,04,27,13,14,9.40
2019,04,27,13,15,9.40
2019,04,27,13,16,9.40
2019,04,27,13,17,9.40
2019,04,27,13,18,9.40
2019,04,27,13,19,9.40
2019,04,27,13,20,9.40
2019,04,27,13,21,9.40
2019,04,27,13,22,9.30
2019,04,27,13,23,9.30
2019,04,27,13,24,9.20
2019,04,27,13,25,9.20
2019,04,27,13,26,9.20
2019,04,27,13,27,9.20
2019,04,27,13,28,9.20
2019,04,27,13,29,9.20
2019,04,27,13,30,9.20
2019,04,27,13,31,9.30
2019,04,27,13,32,9.30
2019,04,27,13,33,9.30
2019,04,27,13,34,9.40
2019,04,27,13,35,9.40
2019,04,27,13,36,9.40
2019,04,27,13,37,9.40
2019,04,27,13,38,9.40
2019,04,27,13,39,9.40
2019,04,27,13,40,9.50
2019,04,27,13,41,9.50
2019,04,27,13,42,9.60
2019,04,27,13,43,9.60
2019,04,27,13,44,9.60
2019,04,27,13,45,9.60
2019,04,27,13,46,9.50
2019,04,27,13,47,9.40
2019,04,27,13,48,9.30
2019,04,27,13,49,9.30
2019,04,27,13,50,9.20
2019,04,27,13,51,9.20
2019,04,27,13,52,9.20
2019,04,27,13,53,9.20
2019,04,27,13,54,9.20
2019,04,27,13,55,9.30
2019,04,27,13,56,9.40
2019,04,27,13,57,9.50
2019,04,27,13,58,9.60
2019,04,27,13,59,9.60
2019,04,27,14,00,9.70
2019,04,27,14,01,9.70
2019,04,27,14,02,9.80
2019,04,27,14,03,9.80
2019,04,27,14,04,9.80
2019,04,27,14,05,9.80
2019,04,27,14,06,9.90
2019,04,27,14,07,9.90
2019,04,27,14,08,9.90
2019,04,27,14,09,9.90
2019,04,27,14,10,9.90
2019,04,27,14,11,9.90
2019,04,27,14,12,9.90
2019,04,27,14,13,9.90
2019,04,27,14,14,10.00
2019,04,27,14,15,10.00
2019,04,27,14,16,10.10
2019,04,27,14,17,10.10
2019,04,27,14,18,10.10
2019,04,27,14,19,10.10
2019,04,27,14,20,10.10
2019,04,27,14,21,10.10
2019,04,27,14,22,10.10
2019,04,27,14,23,10.10
2019,04,27,14,24,10.00
2019,04,27,14,25,10.00
2019,04,27,14,26,9.90
2019,04,27,14,27,9.90
2019,04,27,14,28,9.90
2019,04,27,14,29,9.90
2019,04,27,14,30,9.90
2019,04,27,14,31,9.90
2019,04,27,14,32,9.90
2019,04,27,14,33,9.90
2019,04,27,14,34,9.80
2019,04,27,14,35,9.80
2019,04,27,14,36,9.80
2019,04,27,14,37,9.80
2019,04,27,14,38,9.80
2019,04,27,14,39,9.80
2019,04,27,14,40,9.80
2019,04,27,14,41,9.80
2019,04,27,14,42,9.80
2019,04,27,14,43,9.80
2019,04,27,14,44,9.90
2019,04,27,14,45,9.90
2019,04,27,14,46,9.90
2019,04,27,14,47,9.90
2019,04,27,14,48,9.90
2019,04,27,14,49,9.90
2019,04,27,14,50,9.90
2019,04,27,14,51,9.80
2019,04,27,14,52,9.80
2019,04,27,14,53,9.80
2019,04,27,14,54,9.80
2019,04,27,14,55,9.80
2019,04,27,14,56,9.80
2019,04,27,14,57,9.90
2019,04,27,14,58,9.90
2019,04,27,14,59,9.90
2019,04,27,15,00,9.90
2019,04,27,15,01,10.00
2019,04,27,15,02,10.00
2019,04,27,15,03,10.00
2019,04,27,15,04,10.00
2019,04,27,15,05,10.10
2019,04,27,15,06,10.10
2019,04,27,15,07,10.10
2019,04,27,15,08,10.10
2019,04,27,15,09,10.10
2019,04,27,15,10,10.10
2019,04,27,15,11,10.10
2019,04,27,15,12,10.20
2019,04,27,15,13,10.20
2019,04,27,15,14,10.30
2019,04,27,15,15,10.30
2019,04,27,15,16,10.40
2019,04,27,15,17,10.50
2019,04,27,15,18,10.50
2019,04,27,15,19,10.60
2019,04,27,15,20,10.70
2019,04,27,15,21,10.70
2019,04,27,15,22,10.80
2019,04,27,15,23,10.80
2019,04,27,15,24,10.80
2019,04,27,15,25,10.80
2019,04,27,15,26,10.80
2019,04,27,15,27,10.80
2019,04,27,15,28,10.70
2019,04,27,15,29,10.70
2019,04,27,15,30,10.70
2019,04,27,15,31,10.70
2019,04,27,15,32,10.70
2019,04,27,15,33,10.70
2019,04,27,15,34,10.70
2019,04,27,15,35,10.70
2019,04,27,15,36,10.70
2019,04,27,15,37,10.70
2019,04,27,15,38,10.70
2019,04,27,15,39,10.70
2019,04,27,15,40,10.70
2019,04,27,15,41,10.70
2019,04,27,15,42,10.80
2019,04,27,15,43,10.80
2019,04,27,15,44,10.80
2019,04,27,15,45,10.90
2019,04,27,15,46,10.90
2019,04,27,15,47,10.90
2019,04,27,15,48,10.90
2019,04,27,15,49,10.90
2019,04,27,15,50,10.90
2019,04,27,15,51,10.90
2019,04,27,15,52,10.90
2019,04,27,15,53,10.90
2019,04,27,15,54,10.80
2019,04,27,15,55,10.80
2019,04,27,15,56,10.70
2019,04,27,15,57,10.70
2019,04,27,15,58,10.70
2019,04,27,15,59,10.70
2019,04,27,16,00,10.70
2019,04,27,16,01,10.70
2019,04,27,16,02,10.70
2019,04,27,16,03,10.70
2019,04,27,16,04,10.80
2019,04,27,16,05,10.80
2019,04,27,16,06,10.80
2019,04,27,16,07,10.90
2019,04,27,16,08,10.90
2019,04,27,16,09,11.00
2019,04,27,16,10,11.00
2019,04,27,16,11,11.10
2019,04,27,16,12,11.10
2019,04,27,16,13,11.20
2019,04,27,16,14,11.20
2019,04,27,16,15,11.20
2019,04,27,16,16,11.30
2019,04,27,16,17,11.30
2019,04,27,16,18,11.30
2019,04,27,16,19,11.30
2019,04,27,16,20,11.40
2019,04,27,16,21,11.30
2019,04,27,16,22,11.30
2019,04,27,16,23,11.30
2019,04,27,16,24,11.30
2019,04,27,16,25,11.30
2019,04,27,16,26,11.30
2019,04,27,16,27,11.40
2019,04,27,16,28,11.40
2019,04,27,16,29,11.50
2019,04,27,16,30,11.50
2019,04,27,16,31,11.60
2019,04,27,16,32,11.60
2019,04,27,16,33,11.60
2019,04,27,16,34,11.60
2019,04,27,16,35,11.70
2019,04,27,16,36,11.70
2019,04,27,16,37,11.70
2019,04,27,16,38,11.70
2019,04,27,16,39,11.70
2019,04,27,16,40,11.70
2019,04,27,16,41,11.70
2019,04,27,16,42,11.70
2019,04,27,16,43,11.70
2019,04,27,16,44,11.70
2019,04,27,16,45,11.70
2019,04,27,16,46,11.80
2019,04,27,16,47,11.80
2019,04,27,16,48,11.80
2019,04,27,16,49,11.80
2019,04,27,16,50,11.70
2019,04,27,16,51,11.70
2019,04,27,16,52,11.70
2019,04,27,16,53,11.70
2019,04,27,16,54,11.70
2019,04,27,16,55,11.70
2019,04,27,16,56,11.70
2019,04,27,16,57,11.70
2019,04,27,16,58,11.70
2019,04,27,16,59,11.60
2019,04,27,17,00,11.60
2019,04,27,17,01,11.60
2019,04,27,17,02,11.60
2019,04,27,17,03,11.70
2019,04,27,17,04,11.70
2019,04,27,17,05,11.70
2019,04,27,17,06,11.80
2019,04,27,17,07,11.80
2019,04,27,17,08,11.90
2019,04,27,17,09,11.90
2019,04,27,17,10,11.90
2019,04,27,17,11,12.00
2019,04,27,17,12,12.00
2019,04,27,17,13,12.00
2019,04,27,17,14,12.00
2019,04,27,17,15,12.10
2019,04,27,17,16,12.10
2019,04,27,17,17,12.10
2019,04,27,17,18,12.10
2019,04,27,17,19,12.10
2019,04,27,17,20,12.10
2019,04,27,17,21,12.10
2019,04,27,17,22,12.00
2019,04,27,17,23,12.00
2019,04,27,17,24,11.90
2019,04,27,17,25,11.90
2019,04,27,17,26,11.90
2019,04,27,17,27,11.90
2019,04,27,17,28,11.80
2019,04,27,17,29,11.80
2019,04,27,17,30,11.80
2019,04,27,17,31,11.80
2019,04,27,17,32,11.80
2019,04,27,17,33,11.70
2019,04,27,17,34,11.70
2019,04,27,17,35,11.70
2019,04,27,17,36,11.70
2019,04,27,17,37,11.70
2019,04,27,17,38,11.80
2019,04,27,17,39,11.80
2019,04,27,17,40,11.80
2019,04,27,17,41,11.90
2019,04,27,17,42,11.90
2019,04,27,17,43,11.90
2019,04,27,17,44,11.90
2019,04,27,17,45,12.00
2019,04,27,17,46,12.00
2019,04,27,17,47,12.10
2019,04,27,17,48,12.10
2019,04,27,17,49,12.10
2019,04,27,17,50,12.10
2019,04,27,17,51,12.10
2019,04,27,17,52,12.10
2019,04,27,17,53,12.10
2019,04,27,17,54,12.20
2019,04,27,17,55,12.20
2019,04,27,17,56,12.20
2019,04,27,17,57,12.20
2019,04,27,17,58,12.20
2019,04,27,17,59,12.20
2019,04,27,18,00,12.20
2019,04,27,18,01,12.20
2019,04,27,18,02,12.20
2019,04,27,18,03,12.20
2019,04,27,18,04,12.20
2019,04,27,18,05,12.20
2019,04,27,18,06,12.20
2019,04,27,18,07,12.20
2019,04,27,18,08,12.20
2019,04,27,18,09,12.20
2019,04,27,18,10,12.20
2019,04,27,18,11,12.20
2019,04,27,18,12,12.30
2019,04,27,18,13,12.30
2019,04,27,18,14,12.20
2019,04,27,18,15,12.30
2019,04,27,18,16,12.30
2019,04,27,18,17,12.30
2019,04,27,18,18,12.30
2019,04,27,18,19,12.30
2019,04,27,18,20,12.30
2019,04,27,18,21,12.30
2019,04,27,18,22,12.30
2019,04,27,18,23,12.30
2019,04,27,18,24,12.30
2019,04,27,18,25,12.30
2019,04,27,18,26,12.30
2019,04,27,18,27,12.30
2019,04,27,18,28,12.20
2019,04,27,18,29,12.20
2019,04,27,18,30,12.20
2019,04,27,18,31,12.20
2019,04,27,18,32,12.20
2019,04,27,18,33,12.20
2019,04,27,18,34,12.20
2019,04,27,18,35,12.20
2019,04,27,18,36,12.20
2019,04,27,18,37,12.20
2019,04,27,18,38,12.20
2019,04,27,18,39,12.20
2019,04,27,18,40,12.20
2019,04,27,18,41,12.20
2019,04,27,18,42,12.20
2019,04,27,18,43,12.30
2019,04,27,18,44,12.30
2019,04,27,18,45,12.30
2019,04,27,18,46,12.30
2019,04,27,18,47,12.30
2019,04,27,18,48,12.30
2019,04,27,18,49,12.30
2019,04,27,18,50,12.30
2019,04,27,18,51,12.30
2019,04,27,18,52,12.30
2019,04,27,18,53,12.30
2019,04,27,18,54,12.30
2019,04,27,18,55,12.30
2019,04,27,18,56,12.40
2019,04,27,18,57,12.40
2019,04,27,18,58,12.40
2019,04,27,18,59,12.40
2019,04,27,19,00,12.50
2019,04,27,19,01,12.50
2019,04,27,19,02,12.50
2019,04,27,19,03,12.50
2019,04,27,19,04,12.50
2019,04,27,19,05,12.50
2019,04,27,19,06,12.50
2019,04,27,19,07,12.40
2019,04,27,19,08,12.40
2019,04,27,19,09,12.50
2019,04,27,19,10,12.50
2019,04,27,19,11,12.50
2019,04,27,19,12,12.40
2019,04,27,19,13,12.40
2019,04,27,19,14,12.40
2019,04,27,19,15,12.40
2019,04,27,19,16,12.30
2019,04,27,19,17,12.30
2019,04,27,19,18,12.30
2019,04,27,19,19,12.30
2019,04,27,19,20,12.30
2019,04,27,19,21,12.30
2019,04,27,19,22,12.30
2019,04,27,19,23,12.30
2019,04,27,19,24,12.30
2019,04,27,19,25,12.30
2019,04,27,19,26,12.30
2019,04,27,19,27,12.30
2019,04,27,19,28,12.30
2019,04,27,19,29,12.30
2019,04,27,19,30,12.30
2019,04,27,19,31,12.30
2019,04,27,19,32,12.30
2019,04,27,19,33,12.30
2019,04,27,19,34,12.20
2019,04,27,19,35,12.20
2019,04,27,19,36,12.10
2019,04,27,19,37,12.10
2019,04,27,19,38,12.10
2019,04,27,19,39,12.10
2019,04,27,19,40,12.10
2019,04,27,19,41,12.00
2019,04,27,19,42,11.70
2019,04,27,19,43,11.60
2019,04,27,19,44,11.60
2019,04,27,19,45,11.50
2019,04,27,19,46,11.50
2019,04,27,19,47,11.50
2019,04,27,19,48,11.50
2019,04,27,19,49,11.40
2019,04,27,19,50,11.40
2019,04,27,19,51,11.40
2019,04,27,19,52,11.40
2019,04,27,19,53,11.40
2019,04,27,19,54,11.40
2019,04,27,19,55,11.30
2019,04,27,19,56,11.30
2019,04,27,19,57,11.30
2019,04,27,19,58,11.30
2019,04,27,19,59,11.30
2019,04,27,20,00,11.30
2019,04,27,20,01,11.30
2019,04,27,20,02,11.30
2019,04,27,20,03,11.30
2019,04,27,20,04,11.20
2019,04,27,20,05,11.20
2019,04,27,20,06,11.20
2019,04,27,20,07,11.20
2019,04,27,20,08,11.20
2019,04,27,20,09,11.20
2019,04,27,20,10,11.20
2019,04,27,20,11,11.20
2019,04,27,20,12,11.20
2019,04,27,20,13,11.10
2019,04,27,20,14,11.10
2019,04,27,20,15,11.10
2019,04,27,20,16,11.10
2019,04,27,20,17,11.00
2019,04,27,20,18,11.00
2019,04,27,20,19,11.00
2019,04,27,20,20,10.90
2019,04,27,20,21,10.90
2019,04,27,20,22,10.90
2019,04,27,20,23,10.90
2019,04,27,20,24,10.80
2019,04,27,20,25,10.80
2019,04,27,20,26,10.80
2019,04,27,20,27,10.80
2019,04,27,20,28,10.80
2019,04,27,20,29,10.80
2019,04,27,20,30,10.80
2019,04,27,20,31,10.80
2019,04,27,20,32,10.80
2019,04,27,20,33,10.70
2019,04,27,20,34,10.70
2019,04,27,20,35,10.70
2019,04,27,20,36,10.70
2019,04,27,20,37,10.70
2019,04,27,20,38,10.70
2019,04,27,20,39,10.60
2019,04,27,20,40,10.60
2019,04,27,20,41,10.60
2019,04,27,20,42,10.60
2019,04,27,20,43,10.60
2019,04,27,20,44,10.60
2019,04,27,20,45,10.60
2019,04,27,20,46,10.60
2019,04,27,20,47,10.50
2019,04,27,20,48,10.50
2019,04,27,20,49,10.50
2019,04,27,20,50,10.50
2019,04,27,20,51,10.50
2019,04,27,20,52,10.50
2019,04,27,20,53,10.50
2019,04,27,20,54,10.50
2019,04,27,20,55,10.50
2019,04,27,20,56,10.50
2019,04,27,20,57,10.40
2019,04,27,20,58,10.40
2019,04,27,20,59,10.40
2019,04,27,21,00,10.30
2019,04,27,21,01,10.30
2019,04,27,21,02,10.30
2019,04,27,21,03,10.20
2019,04,27,21,04,10.20
2019,04,27,21,05,10.20
2019,04,27,21,06,10.20
2019,04,27,21,07,10.10
2019,04,27,21,08,10.10
2019,04,27,21,09,10.10
2019,04,27,21,10,10.00
2019,04,27,21,11,10.00
2019,04,27,21,12,10.00
2019,04,27,21,13,10.00
2019,04,27,21,14,9.90
2019,04,27,21,15,9.90
2019,04,27,21,16,9.90
2019,04,27,21,17,9.90
2019,04,27,21,18,9.90
2019,04,27,21,19,9.80
2019,04,27,21,20,9.80
2019,04,27,21,21,9.80
2019,04,27,21,22,9.70
2019,04,27,21,23,9.70
2019,04,27,21,24,9.70
2019,04,27,21,25,9.70
2019,04,27,21,26,9.70
2019,04,27,21,27,9.70
2019,04,27,21,28,9.60
2019,04,27,21,29,9.60
2019,04,27,21,30,9.60
2019,04,27,21,31,9.60
2019,04,27,21,32,9.60
2019,04,27,21,33,9.60
2019,04,27,21,34,9.60
2019,04,27,21,35,9.60
2019,04,27,21,36,9.60
2019,04,27,21,37,9.60
2019,04,27,21,38,9.60
2019,04,27,21,39,9.60
2019,04,27,21,40,9.60
2019,04,27,21,41,9.60
2019,04,27,21,42,9.60
2019,04,27,21,43,9.60
2019,04,27,21,44,9.60
2019,04,27,21,45,9.60
2019,04,27,21,46,9.50
2019,04,27,21,47,9.50
2019,04,27,21,48,9.50
2019,04,27,21,49,9.40
2019,04,27,21,50,9.40
2019,04,27,21,51,9.40
2019,04,27,21,52,9.30
2019,04,27,21,53,9.30
2019,04,27,21,54,9.30
2019,04,27,21,55,9.20
2019,04,27,21,56,9.20
2019,04,27,21,57,9.20
2019,04,27,21,58,9.20
2019,04,27,21,59,9.20
2019,04,27,22,00,9.20
2019,04,27,22,01,9.10
2019,04,27,22,02,9.10
2019,04,27,22,03,9.10
2019,04,27,22,04,9.10
2019,04,27,22,05,9.10
2019,04,27,22,06,9.10
2019,04,27,22,07,9.10
2019,04,27,22,08,9.10
2019,04,27,22,09,9.10
2019,04,27,22,10,9.10
2019,04,27,22,11,9.10
2019,04,27,22,12,9.10
2019,04,27,22,13,9.10
2019,04,27,22,14,9.10
2019,04,27,22,15,9.10
2019,04,27,22,16,9.10
2019,04,27,22,17,9.10
2019,04,27,22,18,9.00
2019,04,27,22,19,9.00
2019,04,27,22,20,9.00
2019,04,27,22,21,9.00
2019,04,27,22,22,9.00
2019,04,27,22,23,9.00
2019,04,27,22,24,9.00
2019,04,27,22,25,9.00
2019,04,27,22,26,9.00
2019,04,27,22,27,9.00
2019,04,27,22,28,8.90
2019,04,27,22,29,8.90
2019,04,27,22,30,8.90